Location: Cactus School
(34.5700°N, 118.0931°W)
Time: 02:23:54
(UTC-07:00)

Courier 1B - Pass Details

Date: 26 April 2024
Orbit: 962 x 1208 km, 28.3° (Epoch: 11 May)

Event Time Altitude Azimuth Distance (km) Brightness Sun altitude
Exits shadow 03:13:00 36° 137° (SE) 1,672 8.6 -31.0°
Drops below altitude 10° 03:17:22 10° 114° (ESE) 2,913 10.2 -30.4°
Sets 03:20:06 0° 109° (ESE) 3,831 10.9 -30.0°
